Linton Municipal Airport, ND

1:08 AM CST on December 17, 2017 (GMT -0600)
Linton Municipal Airport

Weather History for K7L2 - December, 2013

Change the Weather History Date:

Wednesday, December 11, 2013

  Actual Average (KBIS) Record (KBIS)
Temperature  
Mean Temperature -5 °F -  
Max Temperature 15 °F 26 °F 64 °F (1939)
Min Temperature -25 °F 7 °F -22 °F (2013)
Degree Days  
Heating Degree Days 70    
Moisture  
Dew Point -10 °F    
Average Humidity 78    
Maximum Humidity 92    
Minimum Humidity 69    
Precipitation  
Precipitation 0.00 in - - ()
Sea Level Pressure  
Sea Level Pressure 30.30 in    
Wind  
Wind Speed 7 mph (SW)    
Max Wind Speed 15 mph    
Max Gust Speed 18 mph    
Visibility 10 miles    
Events      
Averages and records for this station are not official NWS values.
T = Trace of Precipitation, MM = Missing Value Source: NWS Daily Summary

Daily Weather History Graph

Daily Weather History Graph

Search for Another Location

Airport or City:

Trip Planner

Search our weather history database for the weather conditions in past years. The results will help you decide how hot, cold, wet, or windy it might be!

Date:

Astronomy

Dec. 11, 2013 Rise Set
Actual Time 8:13 AM CST 4:54 PM CST
Civil Twilight 7:39 AM CST 5:29 PM CST
Nautical Twilight 7:01 AM CST 6:07 PM CST
Astronomical Twilight 6:24 AM CST 6:43 PM CST
Moon 1:43 PM CST (12/11) 2:21 AM CST (12/11)
Length of Visible Light 9h 50m
Length of Day
8h 40m
Waxing Gibbous, 72% of the Moon is Illuminated
Dec 11
Waxing Gibbous
Dec 17
Full
Dec 25
Last Quarter
Jan 1
New
Jan 7
First Quarter

Hourly Weather History & Observations

Time (CST) Temp. Windchill Dew Point Humidity Pressure Visibility Wind Dir Wind Speed Gust Speed Precip Events Conditions
12:15 AM -11.2 °F -20.6 °F -16.6 °F 77% 30.39 in 10.0 mi WSW 3.5 mph - N/A   Clear
12:35 AM -11.2 °F -27.8 °F -16.6 °F 77% 30.40 in 10.0 mi West 8.1 mph - N/A   Clear
12:55 AM -9.4 °F -26.8 °F -14.8 °F 77% 30.40 in 10.0 mi West 9.2 mph - N/A   Clear
1:15 AM -14.8 °F -30.8 °F -20.2 °F 77% 30.41 in 10.0 mi West 6.9 mph - N/A   Clear
1:35 AM -13.0 °F -31.3 °F -18.4 °F 77% 30.40 in 10.0 mi West 9.2 mph - N/A   Clear
1:55 AM -11.2 °F -30.1 °F -14.8 °F 84% 30.40 in 10.0 mi West 10.4 mph - N/A   Clear
2:15 AM -13.0 °F -27.0 °F -18.4 °F 77% 30.42 in 10.0 mi West 5.8 mph - N/A   Clear
2:35 AM -16.6 °F -34.4 °F -20.2 °F 84% 30.42 in 10.0 mi West 8.1 mph - N/A   Clear
2:55 AM -14.8 °F -24.8 °F -20.2 °F 77% 30.42 in 10.0 mi WNW 3.5 mph - N/A   Clear
3:15 AM -16.6 °F -34.4 °F -22.0 °F 76% 30.42 in 10.0 mi West 8.1 mph - N/A   Clear
3:35 AM -18.4 °F -35.1 °F -22.0 °F 84% 30.43 in 10.0 mi West 6.9 mph - N/A   Clear
3:55 AM -18.4 °F -35.1 °F -23.8 °F 76% 30.42 in 10.0 mi WSW 6.9 mph - N/A   Clear
4:15 AM -20.2 °F -37.3 °F -25.6 °F 76% 30.42 in 10.0 mi WSW 6.9 mph - N/A   Clear
4:35 AM -20.2 °F -38.8 °F -25.6 °F 76% 30.41 in 10.0 mi WSW 8.1 mph - N/A   Clear
4:55 AM -20.2 °F -37.3 °F -25.6 °F 76% 30.42 in 10.0 mi WSW 6.9 mph - N/A   Clear
5:15 AM -22.0 °F -37.7 °F -27.4 °F 76% 30.42 in 10.0 mi West 5.8 mph - N/A   Clear
5:35 AM -20.2 °F -33.5 °F -25.6 °F 76% 30.42 in 10.0 mi West 4.6 mph - N/A   Clear
5:55 AM -18.4 °F -28.9 °F -23.8 °F 76% 30.42 in 10.0 mi WSW 3.5 mph - N/A   Clear
6:15 AM -18.4 °F -31.4 °F -23.8 °F 76% 30.42 in 10.0 mi WSW 4.6 mph - N/A   Clear
6:35 AM -20.2 °F - -25.6 °F 76% 30.42 in 10.0 mi Calm Calm - N/A   Clear
6:55 AM -20.2 °F -35.5 °F -27.4 °F 69% 30.41 in 10.0 mi WSW 5.8 mph - N/A   Clear
7:15 AM -20.2 °F -35.5 °F -25.6 °F 76% 30.42 in 10.0 mi WSW 5.8 mph - N/A   Clear
7:35 AM -20.2 °F -35.5 °F -25.6 °F 76% 30.41 in 10.0 mi WSW 5.8 mph - N/A   Clear
7:55 AM -20.2 °F -33.5 °F -25.6 °F 76% 30.42 in 10.0 mi SW 4.6 mph - N/A   Clear
8:15 AM -20.2 °F -35.5 °F -25.6 °F 76% 30.42 in 10.0 mi WSW 5.8 mph - N/A   Clear
8:35 AM -22.0 °F - -29.2 °F 69% 30.42 in - Calm Calm - N/A   Clear
8:55 AM -25.6 °F - -29.2 °F 83% 30.42 in 10.0 mi Calm Calm - N/A   Clear
9:15 AM -22.0 °F - -27.4 °F 76% 30.41 in 10.0 mi Calm Calm - N/A   Clear
9:35 AM -18.4 °F -31.4 °F -23.8 °F 76% 30.41 in 10.0 mi ESE 4.6 mph - N/A   Clear
9:55 AM -14.8 °F -24.8 °F -20.2 °F 77% 30.40 in 10.0 mi ESE 3.5 mph - N/A   Clear
10:15 AM -11.2 °F -23.0 °F -16.6 °F 77% 30.39 in 9.0 mi SE 4.6 mph - N/A   Clear
10:35 AM -9.4 °F -27.9 °F -13.0 °F 84% 30.39 in 10.0 mi SSE 10.4 mph - N/A   Clear
10:55 AM -9.4 °F -26.8 °F -13.0 °F 84% 30.39 in 10.0 mi South 9.2 mph - N/A   Clear
11:15 AM -7.6 °F -23.4 °F -11.2 °F 84% 30.38 in 10.0 mi South 8.1 mph - N/A   Clear
11:35 AM -4.0 °F -19.0 °F -9.4 °F 78% 30.36 in 10.0 mi South 8.1 mph - N/A   Clear
11:55 AM -4.0 °F -17.8 °F -7.6 °F 85% 30.35 in 10.0 mi South 6.9 mph - N/A   Clear
12:15 PM -0.4 °F -16.7 °F -4.0 °F 85% 30.34 in 10.0 mi SSW 10.4 mph - N/A   Clear
12:35 PM -0.4 °F -16.7 °F -4.0 °F 85% 30.32 in 10.0 mi SW 10.4 mph - N/A   Clear
12:55 PM 1.4 °F -13.5 °F -5.8 °F 72% 30.31 in 10.0 mi South 9.2 mph - N/A   Partly Cloudy
1:15 PM 1.4 °F -13.5 °F -4.0 °F 78% 30.29 in 10.0 mi South 9.2 mph - N/A   Partly Cloudy
1:35 PM 1.4 °F -13.5 °F -4.0 °F 78% 30.27 in 10.0 mi SSE 9.2 mph - N/A   Clear
1:55 PM 3.2 °F -15.3 °F -4.0 °F 72% 30.26 in 10.0 mi South 15.0 mph 18.4 mph N/A   Clear
2:15 PM 5.0 °F -10.0 °F -2.2 °F 72% 30.25 in 10.0 mi South 10.4 mph - N/A   Clear
2:35 PM 5.0 °F -8.1 °F -2.2 °F 72% 30.24 in 10.0 mi SSE 8.1 mph - N/A   Clear
2:55 PM 5.0 °F -10.8 °F -0.4 °F 78% 30.23 in 10.0 mi South 11.5 mph - N/A   Clear
3:15 PM 5.0 °F -9.1 °F -0.4 °F 78% 30.22 in 10.0 mi South 9.2 mph - N/A   Clear
3:35 PM 6.8 °F -7.8 °F -0.4 °F 72% 30.21 in 10.0 mi South 10.4 mph - N/A   Clear
3:55 PM 6.8 °F -6.9 °F -0.4 °F 72% 30.20 in 10.0 mi South 9.2 mph - N/A   Partly Cloudy
4:15 PM 6.8 °F -2.0 °F -0.4 °F 72% 30.19 in 10.0 mi SSE 4.6 mph - N/A   Clear
4:35 PM 6.8 °F -3.5 °F 1.4 °F 79% 30.18 in 10.0 mi South 5.8 mph - N/A   Clear
4:55 PM 6.8 °F -0.1 °F 1.4 °F 79% 30.17 in 10.0 mi SE 3.5 mph - N/A   Scattered Clouds
5:15 PM 8.6 °F -6.3 °F 1.4 °F 73% 30.16 in 10.0 mi South 11.5 mph 16.1 mph N/A   Mostly Cloudy
5:35 PM 8.6 °F -3.7 °F 3.2 °F 79% 30.16 in 10.0 mi South 8.1 mph - N/A   Overcast
5:55 PM 10.4 °F -4.1 °F 5.0 °F 79% 30.14 in 10.0 mi South 11.5 mph - N/A   Overcast
6:15 PM 10.4 °F -4.8 °F 5.0 °F 79% 30.14 in 10.0 mi South 12.7 mph - N/A   Overcast
6:35 PM 12.2 °F -1.8 °F 5.0 °F 73% 30.13 in 10.0 mi South 11.5 mph 18.4 mph N/A   Overcast
6:55 PM 12.2 °F -0.2 °F 6.8 °F 79% 30.13 in 10.0 mi SSW 9.2 mph - N/A   Overcast
7:15 PM 14.0 °F 2.9 °F 6.8 °F 73% 30.13 in 10.0 mi SW 8.1 mph - N/A   Overcast
7:35 PM 14.0 °F 0.5 °F 6.8 °F 73% 30.11 in 10.0 mi SW 11.5 mph - N/A   Overcast
7:55 PM 15.8 °F 3.4 °F 8.6 °F 73% 30.13 in 10.0 mi WSW 10.4 mph - N/A   Overcast
8:15 PM 14.0 °F 2.9 °F 6.8 °F 73% 30.13 in 10.0 mi WSW 8.1 mph - N/A   Mostly Cloudy
8:35 PM 14.0 °F 2.0 °F 6.8 °F 73% 30.13 in 10.0 mi WSW 9.2 mph - N/A   Scattered Clouds
8:55 PM 12.2 °F 0.7 °F 6.8 °F 79% 30.13 in 10.0 mi West 8.1 mph - N/A   Clear
9:15 PM 8.6 °F -3.7 °F 5.0 °F 85% 30.13 in 10.0 mi West 8.1 mph - N/A   Clear
9:35 PM 8.6 °F -1.3 °F 3.2 °F 79% 30.13 in 10.0 mi West 5.8 mph - N/A   Clear
9:55 PM 6.8 °F - 3.2 °F 85% 30.14 in 10.0 mi Calm Calm - N/A   Clear
10:15 PM 8.6 °F 0.1 °F 5.0 °F 85% 30.14 in 10.0 mi WNW 4.6 mph - N/A   Clear
10:35 PM 10.4 °F 2.2 °F 6.8 °F 85% 30.15 in 10.0 mi WNW 4.6 mph - N/A   Clear
10:55 PM 6.8 °F -5.9 °F 3.2 °F 85% 30.15 in 10.0 mi West 8.1 mph - N/A   Clear
11:15 PM 5.0 °F -2.1 °F 3.2 °F 92% 30.16 in 10.0 mi West 3.5 mph - N/A   Clear
11:35 PM 6.8 °F -0.1 °F 3.2 °F 85% 30.16 in 10.0 mi West 3.5 mph - N/A   Clear
11:55 PM 5.0 °F -5.6 °F 1.4 °F 85% 30.16 in 10.0 mi West 5.8 mph - N/A   Clear